Weather History for Rome, OR

Change the Weather History Date:

Wednesday, May 8, 2013

  Actual Average Record
Temperature  
Mean Temperature 63 °F 52 °F  
Max Temperature 77 °F 67 °F 94 °F (1987)
Min Temperature 48 °F 36 °F 16 °F (2002)
Degree Days  
Heating Degree Days 2 14  
Month to date heating degree days 94 116  
Since 1 July heating degree days 6029 6210  
Cooling Degree Days 0 0  
Month to date cooling degree days 0 0  
Year to date cooling degree days 0 0  
Growing Degree Days 12 (Base 50)    
Moisture  
Dew Point 42 °F    
Average Humidity 56    
Maximum Humidity 86    
Minimum Humidity 25    
Precipitation  
Precipitation 0.01 in 0.04 in 0.74 in (1979)
Month to date precipitation 0.01 0.31  
Year to date precipitation 1.61 3.68  
Sea Level Pressure  
Sea Level Pressure 29.97 in    
Wind  
Wind Speed 8 mph (SSE)    
Max Wind Speed 24 mph    
Max Gust Speed 32 mph    
T = Trace of Precipitation, MM = Missing Value Source: NWS Daily Summary

Daily Weather History Graph

Daily Weather History Graph

Search for Another Location

Airport:

Trip Planner

Search our weather history database for the weather conditions in past years. The results will help you decide how hot, cold, wet, or windy it might be!

Date:

Astronomy

May. 08, 2013 Rise Set
Actual Time 5:36 AM PDT 7:59 PM PDT
Civil Twilight 5:05 AM PDT 8:31 PM PDT
Nautical Twilight 4:26 AM PDT 9:10 PM PDT
Astronomical Twilight 3:42 AM PDT 9:54 PM PDT
Moon 4:49 AM PDT (5/8) 7:01 PM PDT (5/8)
Length of Visible Light 15h 26m
Length of Day
14h 22m
Waning Crescent, 1% of the Moon is Illuminated
May 8
Waning Crescent
May 9
New
May 17
First Quarter
May 24
Full
May 31
Last Quarter

Hourly Weather History & Observations

Time (PDT) Temp. Dew Point Humidity Pressure Visibility Wind Dir Wind Speed Gust Speed Precip Events Conditions
12:52 AM 53.1 °F 45.0 °F 74% 29.91 in - SSE 8.1 mph - N/A   Unknown
1:52 AM 50.0 °F 45.0 °F 83% 29.93 in - SSE 8.1 mph - N/A   Unknown
2:52 AM 51.1 °F 45.0 °F 80% 29.92 in - SE 9.2 mph - N/A   Unknown
3:52 AM 50.0 °F 45.0 °F 83% 29.92 in - SE 10.4 mph - N/A   Unknown
4:52 AM 51.1 °F 45.0 °F 80% 29.94 in - South 4.6 mph - N/A   Unknown
5:52 AM 48.9 °F 44.1 °F 83% 29.96 in - SW 5.8 mph - N/A   Unknown
6:52 AM 53.1 °F 46.0 °F 77% 29.96 in - South 4.6 mph - N/A   Unknown
7:52 AM 57.0 °F 45.0 °F 64% 29.99 in - WSW 4.6 mph - N/A   Unknown
8:52 AM 60.1 °F 45.0 °F 57% 30.00 in - Calm Calm - N/A   Unknown
9:52 AM 63.0 °F 44.1 °F 50% 30.00 in - Calm Calm - N/A   Unknown
10:52 AM 68.0 °F 41.0 °F 37% 29.99 in - Calm Calm - N/A   Unknown
11:52 AM 70.0 °F 39.0 °F 32% 29.98 in - Variable 5.8 mph - N/A   Unknown
12:52 PM 73.0 °F 37.9 °F 28% 29.95 in - NE 9.2 mph 16.1 mph N/A   Unknown
1:39 PM 62.6 °F 46.4 °F 55% 30.04 in - ESE 8.1 mph 23.0 mph N/A   Unknown
1:52 PM 64.0 °F 48.9 °F 58% 29.99 in - ESE 6.9 mph - 0.01 in   Unknown
2:52 PM 75.0 °F 37.9 °F 26% 29.93 in - ENE 10.4 mph 16.1 mph N/A   Unknown
3:29 PM 75.2 °F 39.2 °F 27% 30.00 in - NNW 13.8 mph 18.4 mph N/A   Unknown
3:52 PM 73.9 °F 37.9 °F 27% 29.92 in - Variable 4.6 mph 17.3 mph N/A   Unknown
4:52 PM 73.9 °F 39.0 °F 28% 29.90 in - North 16.1 mph 24.2 mph N/A   Unknown
5:52 PM 73.0 °F 37.0 °F 27% 29.91 in - WNW 3.5 mph - N/A   Unknown
6:52 PM 70.0 °F 39.0 °F 32% 29.92 in - SSE 19.6 mph 32.2 mph N/A   Unknown
6:56 PM 68.0 °F 41.0 °F 37% 29.99 in - SSE 16.1 mph 26.5 mph N/A   Unknown
7:52 PM 64.0 °F 45.0 °F 50% 29.96 in - SE 11.5 mph - N/A   Unknown
8:52 PM 60.1 °F 43.0 °F 53% 29.99 in - SE 10.4 mph - N/A   Unknown
9:52 PM 57.9 °F 42.1 °F 56% 30.02 in - SSE 12.7 mph - N/A   Unknown
10:52 PM 57.0 °F 41.0 °F 55% 30.02 in - SSE 10.4 mph - N/A   Unknown
11:52 PM 55.0 °F 41.0 °F 59% 30.04 in - SSE 10.4 mph - N/A   Unknown